Weather History for Bradshaw AFB, HI

Change the Weather History Date:

Tuesday, December 3, 2013

  Actual Average Record
Temperature  
Mean Temperature 54 °F -  
Max Temperature 66 °F 64 °F 71 °F (2002)
Min Temperature 43 °F 44 °F 37 °F (2002)
Degree Days  
Heating Degree Days 10    
Growing Degree Days 4 (Base 50)    
Moisture  
Dew Point 45 °F    
Average Humidity 77    
Maximum Humidity 94    
Minimum Humidity 41    
Precipitation  
Precipitation 0.00 in - - ()
Sea Level Pressure  
Sea Level Pressure 30.27 in    
Wind  
Wind Speed 4 mph (South)    
Max Wind Speed 10 mph    
Max Gust Speed -    
Visibility 9 miles    
Events      
Averages and records for this station are not official NWS values.
T = Trace of Precipitation, MM = Missing Value Source: NWS Daily Summary

Daily Weather History Graph

Daily Weather History Graph

Search for Another Location

Airport:

Trip Planner

Search our weather history database for the weather conditions in past years. The results will help you decide how hot, cold, wet, or windy it might be!

Date:

Astronomy

Dec. 03, 2013 Rise Set
Actual Time 6:42 AM HST 5:42 PM HST
Civil Twilight 6:18 AM HST 6:06 PM HST
Nautical Twilight 5:51 AM HST 6:33 PM HST
Astronomical Twilight 5:24 AM HST 7:00 PM HST
Moon 7:25 AM HST (12/3) 6:54 PM HST (12/3)
Length of Visible Light 11h 47m
Length of Day
11h 00m
New Moon, 1% of the Moon is Illuminated
Dec 3
New Moon
Dec 9
First Quarter
Dec 16
Full
Dec 25
Last Quarter
Jan 1
New

Hourly Weather History & Observations

Time (HST) Temp. Windchill Dew Point Humidity Pressure Visibility Wind Dir Wind Speed Gust Speed Precip Events Conditions
12:56 AM 50.2 °F - 42.8 °F 76% 30.29 in 9.0 mi North 3.5 mph - N/A   Clear
1:56 AM 45.9 °F 44.6 °F 36.9 °F 71% 30.27 in 12.0 mi ESE 3.5 mph - N/A   Clear
2:56 AM 46.2 °F - 36.3 °F 68% 30.27 in 12.0 mi WNW 2.3 mph - N/A   Clear
3:56 AM 43.3 °F 40.7 °F 34.2 °F 70% 30.26 in 12.0 mi ESE 4.6 mph - N/A   Clear
4:56 AM 44.8 °F - 30.4 °F 57% 30.25 in 12.0 mi East 2.3 mph - N/A   Clear
5:56 AM 49.3 °F - 26.4 °F 41% 30.25 in 12.0 mi ESE 8.1 mph - N/A   Clear
6:56 AM 46.2 °F - 38.3 °F 74% 30.28 in 12.0 mi West 2.3 mph - N/A   Clear
7:56 AM 52.0 °F - 45.5 °F 79% 30.30 in 12.0 mi ESE 2.3 mph - N/A   Clear
8:56 AM 58.6 °F - 49.5 °F 72% 30.31 in 10.0 mi SSE 3.5 mph - N/A   Clear
9:56 AM 62.6 °F - 48.6 °F 60% 30.29 in 12.0 mi SSW 5.8 mph - N/A   Clear
10:56 AM 66.7 °F - 42.3 °F 41% 30.28 in 12.0 mi West 6.9 mph - N/A   Clear
3:56 PM 61.7 °F - 50.5 °F 67% 30.22 in 8.0 mi WSW 10.4 mph - N/A   Clear
4:56 PM 59.5 °F - 52.7 °F 78% 30.22 in 7.0 mi WSW 5.8 mph - N/A   Clear
5:56 PM 55.4 °F - 51.6 °F 87% 30.24 in 7.0 mi WSW 3.5 mph - N/A   Clear
6:26 PM 53.6 °F - 51.8 °F 94% 30.26 in 5.0 mi West 1.2 mph - N/A   Mostly Cloudy
6:36 PM 53.6 °F - 51.8 °F 94% 30.26 in 4.0 mi SSW 1.2 mph - N/A   Mostly Cloudy
6:46 PM 53.6 °F - 51.8 °F 94% 30.26 in 4.0 mi SSW 1.2 mph - N/A   Mostly Cloudy
6:51 PM 53.6 °F - 51.8 °F 94% 30.27 in 4.0 mi Calm Calm - N/A   Mostly Cloudy
6:56 PM 53.8 °F - 51.8 °F 93% 30.27 in 5.0 mi SSW 1.2 mph - N/A   Mostly Cloudy
7:56 PM 55.0 °F - 50.9 °F 86% 30.27 in 6.0 mi ESE 1.2 mph - N/A   Mostly Cloudy
8:11 PM 53.6 °F - 50.0 °F 88% 30.28 in 7.0 mi ESE 4.6 mph - N/A   Scattered Clouds
8:56 PM 50.9 °F - 48.4 °F 91% 30.28 in 7.0 mi SE 3.5 mph - N/A   Clear
9:56 PM 48.2 °F - 45.1 °F 89% 30.29 in 12.0 mi ESE 3.5 mph - N/A   Clear
10:56 PM 46.9 °F - 39.0 °F 74% 30.29 in 12.0 mi SE 5.8 mph - N/A   Clear
11:56 PM 43.3 °F 41.7 °F 36.5 °F 77% 30.28 in 11.0 mi SE 3.5 mph - N/A   Clear